Regional Weather Roundup
Issued by NWS

Home | Current Version | Previous Version | Text Only | Print | Product List | Glossary Off
Versions: 1 2 3 4 5 6 7 8 9 10 11 12 13 14 15 16 17 18 19 20 21 22 23 24 25 26 27 28 29 30 31 32 33 34 35 36 37 38 39 40 41 42 43 44 45 46 47 48 49 50

000
ASUS45 KPSR 251900
RWRAZ

ARIZONA HOURLY REGIONAL WEATHER ROUNDUP
NATIONAL WEATHER SERVICE PHOENIX AZ
1200 PM MST MON MAY 25 2015

NOTE: FAIR INDICATES FEW OR NO CLOUDS BELOW 12,000 FEET WITH NO
SIGNIFICANT WEATHER AND/OR OBSTRUCTIONS TO VISIBILITY.

AZZ001>003-036-252000-
NORTHWEST ARIZONA

CITY           SKY/WX    TMP DP  RH WIND       PRES   REMARKS
KINGMAN        SUNNY     79  39  23 W16G22    29.99S
$$

AZZ004>008-015-016-018-252000-
NORTH CENTRAL ARIZONA

CITY           SKY/WX    TMP DP  RH WIND       PRES   REMARKS
GRAND CANYON   PTSUNNY   58  44  60 W8        30.11S
WILLIAMS       PTSUNNY   57  43  58 NW10G21   30.19S
PRESCOTT       MOSUNNY   69  37  30 NW8G22    30.06F
FLAGSTAFF      TSTM      51  42  71 NW8       30.14R
PAYSON         PTSUNNY   66  37  34 VRB3G20   30.09S
PAGE           SUNNY     69  44  40 VRB5      29.98F
$$

AZZ009>014-017-252000-
NORTHEAST ARIZONA

CITY           SKY/WX    TMP DP  RH WIND       PRES   REMARKS
WINSLOW        NOT AVBL
SAINT JOHNS    CLOUDY    58  43  57 NW16      30.08S
WINDOW ROCK    CLOUDY    54  40  59 N10       30.08R
$$

AZZ023-252000-
GREATER PHOENIX AREA

CITY           SKY/WX    TMP DP  RH WIND       PRES   REMARKS
PHOENIX        MOSUNNY   84  42  22 VRB3      29.91S
GLENDALE       MOSUNNY   84  41  21 SE8       29.92F
DEER VALLEY    SUNNY     81  41  24 W9        29.92F
SCOTTSDALE     SUNNY     83  41  22 W10       29.94F
MESA-FALCON    MOSUNNY   81  41  24 VRB6      29.92F
MESA-GATEWAY   MOSUNNY   81  45  28 W6        29.95S
CHANDLER       MOSUNNY   82  43  24 W79       29.93S
$$

AZZ027-028-252000-
SOUTHWEST MARICOPA COUNTY AND PINAL COUNTY

CITY           SKY/WX    TMP DP  RH WIND       PRES   REMARKS
CASA GRANDE    SUNNY     82  43  24 W5        29.92F
$$

AZZ503-504-507>509-252000-
SOUTHEAST ARIZONA

CITY           SKY/WX    TMP DP  RH WIND       PRES   REMARKS
TUCSON         SUNNY     80  33  18 CALM      29.99F
NOGALES        SUNNY     77  30  17 CALM      30.02F
SAFFORD        SUNNY     81  32  17 NW13G21   29.95F
$$

AZZ020-021-025-026-031-252000-
SOUTHWEST ARIZONA

CITY           SKY/WX    TMP DP  RH WIND       PRES   REMARKS
YUMA           SUNNY     87  43  21 SW10      29.88F
$$

CAZ031-033-041-043-047-048-061-252000-
SOUTHERN CALIFORNIA

CITY           SKY/WX    TMP DP  RH WIND       PRES   REMARKS
DOWNTOWN L.A.  CLOUDY    65  54  67 CALM      30.01R
L.A. AIRPORT   CLOUDY    63  54  72 SW9       30.02R
SAN DIEGO      DRIZZLE   62  55  77 NW6       30.04R
BURBANK        CLOUDY    65  52  62 S6        30.00S
ONTARIO        CLOUDY    65  52  62 SW6       30.01R HAZE
RIVERSIDE      CLOUDY    66  53  63 VRB5      30.01R
PALM SPRINGS   SUNNY     85  49  28 VRB5      29.90S
EL CENTRO NAS  SUNNY     85  52  32 CALM      29.88F
IMPERIAL       SUNNY     85  50  29 MISG      29.86F
BLYTHE         SUNNY     87  45  23 SE7       29.87F
$$

NVZ020-UTZ003-252000-
SOUTHERN NEVADA-UTAH

CITY           SKY/WX    TMP DP  RH WIND       PRES   REMARKS
LAS VEGAS      NOT AVBL
SALT LAKE CITY PTSUNNY   64  47  53 NW9       29.96F
$$

NMZ009-TXZ055-252000-
NEW MEXICO-WEST TEXAS

CITY           SKY/WX    TMP DP  RH WIND       PRES   REMARKS
ALBUQUERQUE    PTSUNNY   68  41  37 W13       29.98F
EL PASO        MOSUNNY   79  29  16 W6G32     29.97S
$$


........................KEY........................
SKY/WX - SKY CONDITION/WEATHER
TMP    - TEMPERATURE IN FAHRENHEIT
DP     - DEW POINT IN FAHRENHEIT
RH     - RELATIVE HUMIDITY IN PERCENT
WIND   - DIRECTION AND SPEED IN MILES PER HOUR (MPH)
VRB    - VARIABLE WIND DIRECTION
PRES   - MEAN SEA LEVEL PRESSURE IN INCHES OF MERCURY
         F - FALLING PRESSURE   R - RISING PRESSURE
         S - STEADY PRESSURE
VSB    - VISIBILITY IN MILES
HX     - HEAT INDEX IN FAHRENHEIT
WCI    - WIND CHILL INDEX IN FAHRENHEIT
TC     - TEMPERATURE IN CELSIUS WHICH IS ALSO KNOWN AS
         TEMPERATURE IN CENTIGRADE
AFB    - AIR FORCE BASE
         LUKE AFB IS LUKE AIR FORCE BASE
         DAVIS-MONTHAN IS DAVIS-MONTHAN AIR FORCE BASE
NAS    - NAVAL AIR STATION
         EL CENTRO NAS IS EL CENTRO NAVAL AIR STATION
N/A    - NOT AVAILABLE




USA.gov is the U.S. government's official web portal to all federal, state and local government web resources and services.